Aérodrome :
LOGIN :

S'inscrire | Disclaimer

   EN    FR    IT 

 










Légende :    VFR   VFR Marginal   IFR   IFR Intensif   IFR Très Intensif
Visi : 
Plafond : 
>= 8 km
>= 3000ft
5 à 8 km
1000 à 3000 ft
1500m à 5 km
500 à 1000 ft
800 à 1500m
200 à 500 ft
< 800m
< 200 ft
Symboles :   Orages  Brouillard  Fortes neiges  Fortes précipitations  Vent > 20 kt
SIGMETs :   Divers  Orages  Givrage  Turbulence  Onde Orograph.  Cendres Volcan.







- Altitude de l'aérodrome : 187 ft


LPMR - Monte Real Air Base

DERNIER METAR :
  • 221700Z 35014KT 9000 SCT007 BKN014 OVC020 12/11 Q1021

METARs EXPIRÉS :
  • 221600Z 29012KT 260V330 2000 RADZ BR BKN005 BKN012 OVC016 12/12 Q1021
  • 221500Z 28012KT 9999 BKN016 BKN023 13/10 Q1021

TAF AMD TAF LPMR
Valide du 22 à 17h jusqu'au 23 à 12h UTC


221631Z 2217/2312 33015KT 4000 -RADZ BR BKN005 BKN008
BECMG 2217/2218 9999 NSW FEW014 BKN020
TEMPO 2217/2312 34015G25KT
PROB40
TEMPO 2304/2312 35018G32KT 7000 -SHRA SCT012 BKN018
Pas de NOTAMs connus pour ce terrain.



MET'MAP, la Météo Aéronautique d'un coup d'oeil ! - Copyright ORBIFLY Décembre 2007 - Disclaimer

ORBIFLY MET'MAP TEAM :

Programmation & Développement : Alexandra Zaïnal
Conception & Développement : Baudouin d'Aumeries
Co-Programmation & Développement : Marc-Olivier Méhu
Soutien technique & logistique : Manuel Goepfert

Contact : metmap@orbifly.com




SOURCES & CREDITS :

   NOAA